Location: Gans
(44.4561°N, 0.1466°W)
Time: 12:46:07
(UTC+00:00)

Daily predictions for brighter satellites

Satellite Brightness Start Highest point End
(mag) Time Altitude Azimuth Time Altitude Azimuth Time Altitude Azimuth
USA 215 3.7 16:42:52 10° NE 16:49:17 59° NNW 16:55:40 10° WSW
CENTAUR R/B 3.3 16:41:19 10° NW 16:49:25 85° NE 16:58:09 10° SE
Meteor 1-14 Rocket 4.3 16:44:31 10° N 16:50:30 78° E 16:56:19 10° SSE
Radarsat Rocket 4.1 16:44:48 10° SSE 16:51:11 88° ENE 16:57:06 10° NNW
NOAA 6 4.3 16:46:30 10° S 16:51:38 78° WSW 16:56:48 10° NNW
Envisat 4.0 16:48:11 10° ESE 16:52:11 24° ENE 16:56:12 10° NNE
Cosmos 1869 Rocket 3.5 16:48:03 10° N 16:52:29 74° E 16:56:54 10° SSE
Cosmos 2237 Rocket 3.8 16:50:13 10° SE 16:53:35 16° E 16:56:58 10° ENE
Feng Yun 1-1 Rocket 4.4 16:50:58 10° SE 16:56:08 49° ENE 17:01:20 10° N
Cosmos 2322 Rocket 3.6 16:52:22 10° WSW 16:57:29 35° NW 17:02:39 10° N
Cosmos 1812 4.1 16:55:38 10° SE 16:58:25 19° E 17:01:13 10° NE
Cosmos 1331 Rocket 4.1 16:53:10 10° NNW 16:58:27 89° ENE 17:03:43 10° SSE
PSLV R/B 4.0 16:56:24 10° NNE 17:00:33 62° ESE 17:04:38 10° S
Cosmos 1844 3.7 16:56:22 10° NNW 17:02:07 84° ENE 17:07:44 10° SSE
SL-16 R/B 3.9 16:58:01 10° WSW 17:02:53 29° NW 17:07:48 10° N
Cosmos 1110 Rocket 4.4 17:01:37 10° NNW 17:06:47 70° WSW 17:11:57 10° S
Cosmos 371 Rocket 3.8 17:03:12 10° NNW 17:08:05 69° WSW 17:12:55 10° S
Okean O Rocket 2.7 17:04:09 10° S 17:08:21 49° W 17:12:35 10° NNW
Cosmos 1536 4.2 17:06:22 10° NNE 17:09:15 19° ENE 17:12:06 10° ESE
CZ-4 R/B 2.9 17:07:35 10° E 17:09:49 15° ENE 17:12:02 10° NNE
Cosmos 2219 Rocket 2.3 17:06:22 10° S 17:11:51 59° ESE 17:17:24 10° NNE
CORIOLIS 4.2 17:12:00 10° SSE 17:17:21 62° ENE 17:22:45 10° N
Cosmos 1689 Rocket 4.5 17:16:07 10° NNW 17:18:37 24° WNW 17:21:07 10° SW
Cosmos 1602 4.2 17:15:03 10° NNW 17:18:53 64° W 17:22:44 10° S
Okean-O 3.0 17:14:57 10° SE 17:19:06 41° ENE 17:23:17 10° N
Cosmos 1844 Rocket 3.4 17:14:22 10° NNW 17:19:50 57° WSW 17:25:17 10° S
NOAA 12 4.3 17:15:57 10° SE 17:21:03 50° ENE 17:26:10 10° N
Cosmos 1862 Rocket 4.1 17:17:13 10° SSE 17:21:10 36° E 17:25:11 10° NNE
USA 267 3.8 17:16:54 10° SE 17:23:21 62° SW 17:29:51 10° NW
Lacrosse 5 rocket 2.1 17:20:05 10° SSW 17:24:06 38° SE 17:26:52 17° ENE
AQUARIUS 4.1 17:20:05 10° SSE 17:24:34 76° ENE 17:29:05 10° N
NOSS 3-4 (A) 3.7 17:18:53 10° SW 17:24:52 68° NW 17:31:14 10° NE
NOSS 3-4 (C) 3.7 17:18:59 10° SW 17:24:58 68° NW 17:31:21 10° NE
Cosmos 1500 3.6 17:21:36 10° N 17:25:11 39° ENE 17:28:43 10° SSE
BREEZE-M DEB (TANK) 2.6 17:19:08 10° WNW 17:25:33 54° N 17:27:30 18° E
CZ-4B R/B 4.4 17:25:23 10° NNW 17:27:20 14° WNW 17:29:16 10° W
H-2A R/B 2.5 17:23:40 10° SSE 17:27:22 81° ENE 17:31:05 10° N
Cosmos 2279 Rocket 4.1 17:21:50 10° N 17:28:07 85° W 17:34:22 10° S
ATLAS 3B R/B 3.0 17:21:38 10° NW 17:28:20 74° WSW 17:35:13 10° SSE
ISS -2.9 17:25:23 10° NW 17:28:29 33° NNE 17:30:11 20° ENE
Cosmos 1340 3.7 17:25:00 10° NNW 17:28:40 50° W 17:32:19 10° S
COSMOS 2428 2.7 17:27:35 10° SSW 17:33:15 85° ESE 17:38:59 10° NNE
SL-4 R/B 1.8 17:30:38 10° WSW 17:34:20 82° NNW 17:36:58 21° ENE
Meteor 1-5 Rocket 4.1 17:31:35 10° N 17:37:12 76° ENE 17:42:36 10° SSE
Cosmos 1707 Rocket 4.0 17:32:55 10° SSW 17:37:20 65° W 17:41:48 10° N
COBE Rocket 3.7 17:33:13 10° NNE 17:37:53 88° ESE 17:42:34 10° SSW
CSL-04 Rocket 4.3 17:34:09 10° SE 17:38:42 30° ENE 17:43:15 10° N
SL-8 R/B 4.4 17:38:32 10° WNW 17:43:14 53° SSW 17:47:56 10° SE
STARLINK-67 4.1 17:41:25 10° W 17:43:52 27° NNW 17:44:53 21° NNE
Cosmos 1315 Rocket 4.3 17:42:16 10° SW 17:45:57 36° WNW 17:49:41 10° N
FengYun 1-2 T 4.3 17:40:47 10° SE 17:46:05 52° ENE 17:51:24 10° N
YAOGAN 6 2.9 17:43:10 10° SE 17:46:28 40° ENE 17:49:50 10° N
Nadezhda 4 Rocket 4.0 17:41:49 10° S 17:48:04 69° E 17:54:22 10° NNE
YAOGAN 3 4.5 17:45:27 10° SSE 17:49:48 85° ENE 17:54:12 10° NNW
Cosmos 1908 Rocket 3.8 17:52:24 10° N 17:56:38 43° ENE 18:00:48 10° SSE
COSMO-SKYMED 1 2.6 17:53:54 16° NNE 17:57:14 54° E 18:01:29 10° S
Shenzhou-11 Module 2.0 17:55:10 10° WSW 17:57:51 53° S 17:58:10 49° SE
STARLINK-46 2.5 17:56:55 10° WSW 17:59:40 71° NNW 17:59:57 63° NNE
ATLAS 2AS CENTAUR R/B 4.0 17:55:38 10° WSW 18:03:07 41° NW 18:10:08 12° NNE
Cosmos 2251 Rocket 3.4 17:59:31 10° SSW 18:04:50 84° ESE 18:09:04 16° NNE
YAOGAN 1 2.7 18:02:28 10° SE 18:06:37 47° ENE 18:10:48 10° N
BREEZE-M R/B 3.4 18:04:33 10° W 18:09:25 38° N 18:10:05 34° NNE
Cosmos 1666 2.6 18:06:25 10° N 18:10:07 53° ENE 18:13:46 10° SSE
Cosmos 2278 Rocket 2.1 18:05:08 10° NNW 18:10:50 89° ENE 18:16:30 10° SSE
Cosmos 2026 Rocket 4.1 18:05:21 10° SSE 18:11:05 46° E 18:15:46 15° NNE
SeaSat 1 4.0 18:14:08 20° NNE 18:14:08 20° NNE 18:16:25 10° N
USA 116 4.5 18:11:45 19° NNE 18:15:32 58° E 18:20:40 10° S
RESURS DK-1 3.3 18:11:58 10° SW 18:15:56 46° WNW 18:18:24 21° N
Cosmos 2360 Rocket 4.4 18:14:19 10° W 18:18:15 19° NW 18:22:14 10° N
Meteor 1-11 Rocket 4.4 18:14:18 10° NNW 18:20:10 59° W 18:26:00 10° S
SL-16 R/B 3.0 18:18:35 10° SSE 18:22:46 31° ESE 18:22:46 31° ESE
Cosmos 2333 Rocket 3.4 18:19:47 10° SW 18:25:09 40° NW 18:30:14 12° NNE
Meteor 1-27 Rocket 4.2 18:20:43 10° SSW 18:26:20 61° WNW 18:32:08 10° N
Cosmos 2369 Rocket 4.2 18:23:09 10° N 18:23:52 12° NNE 18:23:52 12° NNE
Okean 1-7 3.3 18:24:52 10° S 18:28:17 49° SE 18:28:17 49° SE
Envisat 4.0 18:26:03 10° S 18:30:55 47° W 18:35:50 10° NNW
USA 215 4.3 18:28:40 23° NNE 18:31:32 32° N 18:37:11 10° WNW
Cosmos 1627 Rocket 4.3 18:25:54 10° S 18:31:58 72° E 18:37:50 11° NNE
Cosmos 292 Rocket 3.6 18:27:53 10° NNW 18:32:46 70° ENE 18:33:42 55° SE
Cosmos 2237 Rocket 2.3 18:31:14 10° SSW 18:36:56 77° WNW 18:39:44 31° NNE
CZ-4 R/B 2.2 18:40:39 10° S 18:44:28 48° W 18:48:16 10° NNW
Cosmos 1536 4.4 18:42:06 10° NNW 18:45:47 35° W 18:49:27 10° SSW
Cosmos 2195 Rocket 4.5 18:40:53 10° S 18:47:05 82° W 18:53:24 10° N
Meteor 1-18 Rocket 4.3 18:43:51 10° S 18:48:43 56° SE 18:48:43 56° SE
Cosmos 1092 Rocket 4.4 18:45:22 10° SSW 18:51:37 64° W 18:57:53 10° N
Cosmos 2219 Rocket 4.1 18:51:40 10° WSW 18:56:13 25° NW 19:00:10 13° N
Cosmos 1703 Rocket 4.3 18:56:51 10° SSW 19:01:12 53° WNW 19:01:33 51° WNW
Lacrosse 5 rocket 2.8 18:59:20 10° WSW 19:02:32 34° WNW 19:02:32 34° WNW
ISS -1.0 19:02:03 10° WNW 19:03:07 19° WNW 19:03:07 19° WNW
Cosmos 2297 4.1 19:04:18 10° NNW 19:08:43 55° NNW 19:08:43 55° NNW
SL-4 R/B 4.2 19:10:51 10° WNW 19:12:35 22° NW 19:12:35 22° NW
Cosmos 1943 Rocket 4.3 19:15:08 10° NNW 19:16:11 15° N 19:16:11 15° N
Cosmos 1553 Rocket 4.4 19:31:21 10° NNW 19:43:55 10° S 19:37:32 62° W
SL-16 R/B 4.1 20:02:12 10° SW 20:04:43 24° WSW 20:04:43 24° WSW
